{"data":{"norad_id":63548,"epoch":"2026-09-19T17:55:16.195008Z","epoch_age_seconds":220592,"freshness":"STALE","line1":"1 63548U 25075A   26262.74671522  .00129390  00000+0  99392-3 0  9995","line2":"2 63548  43.0003  63.6541 0002184 264.3491  95.7128 15.70894531 83777","mean_motion":15.70894531,"eccentricity":0.0002184,"inclination_deg":43.0003,"raan_deg":63.6541,"arg_perigee_deg":264.3491,"mean_anomaly_deg":95.7128,"bstar":0.00099392,"rev_number":8377,"period_min":91.667516283434,"perigee_km":354.86839667016,"apogee_km":357.81001587706,"semimajor_km":6734.4762062736,"source":"CELESTRAK","updated_at":"2026-09-21T09:00:35.018921Z"}}